FW2845 Weather Reports


time (UTC)temp
C
wind
direction
speed
KPH
gust
KPH
rain 1hr
cm
rain 24hr
cm
rain mn
cm
humidity
%
barometer
mb
20260505041728 21 5 9.7 22.5 0.00 0.00 0.00 48 1004.5
20260505041217 21 350 12.9 24.1 0.00 0.00 0.00 45 1004.7
20260505040656 21 10 11.3 29.0 0.00 0.00 0.00 45 1004.9
20260505040155 21 360 12.9 29.0 0.00 0.00 0.00 46 1004.6
20260505035655 21 329 16.1 20.9 0.00 0.00 0.00 51 1004.5
20260505035134 21 355 14.5 20.9 0.00 0.00 0.00 54 1004.5
20260505034633 20 15 9.7 19.3 0.00 0.00 0.00 59 1004.3
20260505034132 20 19 9.7 20.9 0.00 0.00 0.00 65 1004.3
20260505033632 19 328 9.7 20.9 0.00 0.00 0.00 68 1004.3
20260505033119 18 329 6.4 17.7 0.00 0.00 0.00 75 1004.1
20260505032618 18 335 4.8 19.3 0.00 0.00 0.00 78 1004.1
20260505032118 18 335 3.2 19.3 0.00 0.00 0.00 81 1004.0
20260505031556 18 180 1.6 6.4 0.00 0.00 0.00 78 1003.7
20260505031035 18 180 0.0 0.0 0.00 0.00 0.00 76 1003.4
20260505030535 18 180 0.0 0.0 0.00 0.00 0.00 76 1003.2
20260505030035 18 180 0.0 0.0 0.00 0.00 0.00 76 1003.2
20260505025534 18 180 0.0 0.0 0.00 0.00 0.00 76 1003.1
20260505025028 18 180 0.0 0.0 0.00 0.00 0.00 75 1003.1
20260505024527 18 180 0.0 0.0 0.00 0.00 0.00 75 1003.0
20260505024027 19 180 0.0 0.0 0.00 0.00 0.00 74 1003.0
20260505023526 19 180 0.0 0.0 0.00 0.00 0.00 73 1002.9
20260505023011 19 180 0.0 0.0 0.00 0.00 0.00 73 1002.9
20260505022432 20 180 0.0 0.0 0.00 0.00 0.00 72 1002.8
20260505021931 20 180 0.0 0.0 0.00 0.00 0.00 70 1002.7
20260505021431 20 180 0.0 1.6 0.00 0.00 0.00 69 1002.7
20260505020931 20 180 0.0 3.2 0.00 0.00 0.00 68 1002.7
20260505020430 21 180 1.6 3.2 0.00 0.00 0.00 67 1002.5
20260505015930 21 180 1.6 3.2 0.00 0.00 0.00 68 1002.5
20260505015415 21 180 0.0 0.0 0.00 0.00 0.00 65 1002.4
20260505014907 22 180 0.0 0.0 0.00 0.00 0.00 64 1002.3
20260505014407 22 180 0.0 0.0 0.00 0.00 0.00 63 1002.2
20260505013907 22 180 0.0 0.0 0.00 0.00 0.00 62 1002.0
20260505013406 22 180 0.0 0.0 0.00 0.00 0.00 62 1002.0
20260505012906 23 180 0.0 0.0 0.00 0.00 0.00 59 1001.8
20260505012356 23 180 0.0 0.0 0.00 0.00 0.00 60 1001.9
20260505011848 23 180 0.0 0.0 0.00 0.00 0.00 58 1001.8
20260505011346 23 180 0.0 0.0 0.00 0.00 0.00 57 1001.7
20260505010846 24 180 0.0 0.0 0.00 0.00 0.00 56 1001.6
20260505010345 24 180 0.0 0.0 0.00 0.00 0.00 56 1001.7
20260505005845 25 180 0.0 0.0 0.00 0.00 0.00 55 1001.6
20260505005323 25 180 0.0 0.0 0.00 0.00 0.00 54 1001.6
20260505004802 25 180 0.0 0.0 0.00 0.00 0.00 54 1001.5
20260505003738 25 180 0.0 0.0 0.00 0.00 0.00 54 1001.5
20260505003217 25 180 0.0 4.8 0.00 0.00 0.00 53 1001.5
20260505002716 26 180 0.0 6.4 0.00 0.00 0.00 53 1001.5
20260505002216 26 180 1.6 6.4 0.00 0.00 0.00 52 1001.4
20260505001715 26 186 1.6 6.4 0.00 0.00 0.00 53 1001.5
20260505001215 26 187 1.6 8.0 0.00 0.00 0.00 52 1001.6
20260505000715 26 210 1.6 8.0 0.00 0.00 0.00 50 1001.6
20260505000214 26 205 3.2 6.4 0.00 0.00 0.00 50 1001.6
20260504235713 26 205 1.6 9.7 0.00 0.00 0.00 50 1001.7
20260504235213 26 205 4.8 8.0 0.00 0.00 0.00 50 1001.8
20260504234713 26 211 4.8 8.0 0.00 0.00 0.00 47 1001.7
20260504234212 26 183 3.2 9.7 0.00 0.00 0.00 47 1001.6
20260504233711 26 206 1.6 9.7 0.00 0.00 0.00 46 1001.7
20260504233149 26 207 3.2 9.7 0.00 0.00 0.00 45 1001.7
20260504232649 27 202 3.2 11.3 0.00 0.00 0.00 45 1001.7
20260504232128 27 225 3.2 11.3 0.00 0.00 0.00 45 1001.6
20260504231627 27 187 8.0 14.5 0.00 0.00 0.00 45 1001.7
20260504231106 27 209 3.2 14.5 0.00 0.00 0.00 44 1001.7
20260504230606 27 199 6.4 11.3 0.00 0.00 0.00 45 1001.7
20260504230045 27 205 6.4 12.9 0.00 0.00 0.00 45 1001.8
20260504225523 27 220 6.4 14.5 0.00 0.00 0.00 45 1001.7
20260504225022 27 206 8.0 14.5 0.00 0.00 0.00 45 1001.6
20260504224521 27 219 4.8 12.9 0.00 0.00 0.00 46 1001.7
20260504224021 27 194 8.0 12.9 0.00 0.00 0.00 44 1001.6
20260504223452 27 209 3.2 16.1 0.00 0.00 0.00 43 1001.7
20260504222951 28 207 4.8 16.1 0.00 0.00 0.00 42 1001.7
20260504222450 28 216 4.8 14.5 0.00 0.00 0.00 44 1001.7
20260504221929 28 190 8.0 14.5 0.00 0.00 0.00 44 1001.6
20260504221428 28 222 9.7 14.5 0.00 0.00 0.00 44 1001.7
20260504220928 27 198 6.4 14.5 0.00 0.00 0.00 44 1001.8
20260504220428 27 193 6.4 16.1 0.00 0.00 0.00 45 1001.7
20260504215927 27 183 9.7 17.7 0.00 0.00 0.00 43 1001.7
20260504215427 27 225 8.0 16.1 0.00 0.00 0.00 44 1001.7
20260504214927 27 215 8.0 16.1 0.00 0.00 0.00 43 1001.7
20260504214406 27 230 6.4 12.9 0.00 0.00 0.00 43 1001.7
20260504213905 27 190 8.0 16.1 0.00 0.00 0.00 43 1001.7
20260504213405 28 250 8.0 16.1 0.00 0.00 0.00 41 1001.8
20260504212904 28 231 9.7 16.1 0.00 0.00 0.00 42 1001.9
20260504212403 28 221 9.7 16.1 0.00 0.00 0.00 42 1001.9
20260504211903 28 252 8.0 16.1 0.00 0.00 0.00 41 1001.7
20260504211403 28 213 8.0 16.1 0.00 0.00 0.00 41 1001.8
20260504210841 28 235 9.7 16.1 0.00 0.00 0.00 42 1001.8
20260504210320 28 237 6.4 16.1 0.00 0.00 0.00 40 1001.9
20260504205820 28 219 9.7 16.1 0.00 0.00 0.00 41 1002.0
20260504205258 28 207 8.0 17.7 0.00 0.00 0.00 41 1002.1
20260504204757 28 205 4.8 17.7 0.00 0.00 0.00 42 1002.2
20260504204257 28 223 12.9 16.1 0.00 0.00 0.00 41 1002.2
20260504203757 28 198 4.8 14.5 0.00 0.00 0.00 41 1002.3
20260504203256 28 220 11.3 14.5 0.00 0.00 0.00 42 1002.5
20260504202756 28 163 6.4 16.1 0.00 0.00 0.00 45 1002.5
20260504202234 28 241 3.2 17.7 0.00 0.00 0.00 43 1002.6
20260504201733 28 152 11.3 17.7 0.00 0.00 0.00 44 1002.6
20260504201233 28 205 6.4 17.7 0.00 0.00 0.00 43 1002.6
20260504200732 28 263 9.7 17.7 0.00 0.00 0.00 41 1002.5
20260504200232 28 242 11.3 14.5 0.00 0.00 0.00 43 1002.6
20260504195731 28 236 6.4 12.9 0.00 0.00 0.00 48 1002.5
20260504195230 28 214 8.0 22.5 0.00 0.00 0.00 45 1002.5
20260504194729 28 225 11.3 22.5 0.00 0.00 0.00 44 1002.6
20260504194229 28 223 12.9 22.5 0.00 0.00 0.00 43 1002.5
20260504193729 28 225 8.0 22.5 0.00 0.00 0.00 44 1002.5
20260504193229 27 150 9.7 20.9 0.00 0.00 0.00 44 1002.6
20260504192728 27 206 6.4 24.1 0.00 0.00 0.00 45 1002.5
20260504192228 27 256 17.7 24.1 0.00 0.00 0.00 47 1002.5
20260504191727 27 226 4.8 17.7 0.00 0.00 0.00 48 1002.5
20260504191227 27 168 9.7 17.7 0.00 0.00 0.00 47 1002.5
20260504190726 27 213 9.7 17.7 0.00 0.00 0.00 47 1002.6
20260504190226 27 167 11.3 19.3 0.00 0.00 0.00 48 1002.6
20260504185726 27 206 11.3 17.7 0.00 0.00 0.00 48 1002.6
20260504185225 26 244 8.0 20.9 0.00 0.00 0.00 48 1002.6
20260504184724 26 263 14.5 20.9 0.00 0.00 0.00 48 1002.6
20260504184203 26 188 11.3 17.7 0.00 0.00 0.00 50 1002.7
20260504183702 26 182 8.0 22.5 0.00 0.00 0.00 50 1002.6
20260504183202 26 219 11.3 22.5 0.00 0.00 0.00 48 1002.7
20260504182700 26 207 4.8 17.7 0.00 0.00 0.00 49 1002.7
20260504182159 26 219 9.7 17.7 0.00 0.00 0.00 49 1002.7
20260504181659 26 200 12.9 17.7 0.00 0.00 0.00 51 1002.7
20260504181159 25 196 9.7 16.1 0.00 0.00 0.00 53 1002.8
20260504180658 25 205 9.7 24.1 0.00 0.00 0.00 51 1002.8
20260504180158 25 255 11.3 24.1 0.00 0.00 0.00 49 1002.9
20260504175657 25 254 11.3 24.1 0.00 0.00 0.00 49 1003.0
20260504175157 25 261 9.7 24.1 0.00 0.00 0.00 49 1003.1
20260504174656 25 210 11.3 17.7 0.00 0.00 0.00 52 1003.0
20260504174156 25 219 9.7 22.5 0.00 0.00 0.00 54 1003.0
20260504173655 24 227 8.0 22.5 0.00 0.00 0.00 53 1003.2
20260504173133 24 241 11.3 20.9 0.00 0.00 0.00 52 1003.0
20260504172633 24 227 14.5 20.9 0.00 0.00 0.00 53 1003.1
20260504172133 24 217 9.7 20.9 0.00 0.00 0.00 56 1003.2
20260504171633 23 168 9.7 19.3 0.00 0.00 0.00 56 1003.3
20260504171132 23 157 8.0 19.3 0.00 0.00 0.00 56 1003.2
20260504170611 23 244 14.5 20.9 0.00 0.00 0.00 56 1003.3
20260504170110 23 220 12.9 30.6 0.00 0.00 0.00 57 1003.3
20260504150936 21 180 9.7 20.9 0.00 0.00 0.00 61 1003.8
20260504150415 20 221 12.9 20.9 0.00 0.00 0.00 61 1003.8
20260504141226 19 194 11.3 20.9 0.00 0.00 0.00 62 1003.9
20260504140705 19 161 9.7 30.6 0.00 0.00 0.00 64 1004.0
20260504140204 19 193 8.0 30.6 0.00 0.00 0.00 64 1004.0
20260504130616 16 194 6.4 14.5 0.00 0.00 0.00 76 1003.8
20260504130116 15 198 8.0 17.7 0.00 0.00 0.00 77 1003.7
20260504120110 11 230 0.0 0.0 0.00 0.00 0.00 88 1003.8
20260504110523 11 233 0.0 0.0 0.00 0.00 0.00 88 1003.8
20260504100436 11 235 0.0 0.0 0.00 0.00 0.00 84 1004.8
20260504081845 13 235 0.0 0.0 0.00 0.00 0.00 80 1005.3
20260504081344 13 235 0.0 0.0 0.00 0.00 0.00 78 1005.4
20260504080844 13 235 0.0 0.0 0.00 0.00 0.00 76 1005.4
20260504080344 13 235 0.0 0.0 0.00 0.00 0.00 76 1005.4
20260504070257 15 235 0.0 0.0 0.00 0.00 0.00 72 1006.2
20260504060229 16 244 0.0 0.0 0.00 0.00 0.00 70 1006.7
20260504050606 17 17 0.0 0.0 0.00 0.00 0.00 68 1007.3
20260504050105 17 15 0.0 0.0 0.00 0.00 0.00 66 1007.4
20260504045605 17 15 0.0 0.0 0.00 0.00 0.00 67 1007.6
20260504045104 17 15 0.0 0.0 0.00 0.00 0.00 67 1007.7
20260504044604 17 15 0.0 4.8 0.00 0.00 0.00 67 1007.6
20260504044103 17 15 1.6 12.9 0.00 0.00 0.00 68 1007.7
20260504043603 17 15 6.4 14.5 0.00 0.00 0.00 69 1008.0
20260504043102 17 340 11.3 12.9 0.00 0.00 0.00 73 1008.2
20260504042541 16 17 0.0 6.4 0.00 0.00 0.00 75 1008.1